ECMWFNIL_925_temp_057.txt.gz
Temp
19 19 19 18 18 18 18 17 17 17 17 17 17 17 17 17 17 17 17 17 17 16 16 17 16 16 16 16 16 16 16 16 16 16 16 16 16 16 16 16 16 16
19 19 19 18 18 18 18 17 17 17 17 17 17 17 17 17 17 17 17 17 16 16 16 16 16 16 16 16 16 17 17 17 17 17 17 17 17 16 16 16 16 16
19 19 19 18 18 18 17 17 17 17 17 17 17 17 17 16 16 16 17 17 16 16 16 16 16 16 16 16 17 17 17 17 17 17 17 17 17 17 16 16 16 16
19 19 19 18 18 18 17 17 17 17 17 17 17 16 16 16 16 16 17 17 17 16 16 16 16 16 16 16 16 17 17 17 17 17 18 17 17 17 16 16 16 16
19 18 19 18 18 18 17 18 18 17 18 17 17 16 16 16 16 16 16 16 16 16 16 16 16 16 16 16 16 17 17 17 17 17 18 17 17 17 17 17 16 17
19 18 18 18 18 18 18 18 18 17 17 17 17 16 16 16 16 16 16 16 16 16 16 16 16 16 16 16 16 17 17 17 17 17 18 17 17 18 17 17 17 17
19 18 18 18 18 18 18 17 17 17 17 17 17 17 16 16 16 16 16 16 16 16 16 16 16 16 16 16 16 17 17 17 17 17 18 18 18 18 18 18 18 18
18 18 18 18 18 18 18 17 17 17 17 17 17 17 17 16 16 16 16 16 16 16 16 16 16 16 16 16 16 16 17 17 17 17 17 17 17 18 18 18 18 18
18 18 18 18 18 18 18 18 17 17 17 17 17 17 17 16 16 16 16 16 16 16 16 16 16 16 16 16 16 16 17 17 17 17 17 17 17 17 18 18 18 18
17 17 17 17 18 18 18 18 17 17 17 17 17 17 17 16 16 16 16 16 16 16 16 16 16 16 16 16 16 16 17 17 17 17 17 17 17 17 17 17 18 18
16 17 17 17 17 18 17 17 17 17 17 17 17 17 17 16 16 16 16 16 16 16 16 16 16 16 16 17 17 17 17 17 17 17 17 17 17 17 17 17 17 17
16 16 17 17 17 17 16 16 17 17 17 17 17 17 17 16 16 16 16 16 16 16 17 16 17 17 17 17 17 17 17 17 17 17 17 17 17 17 17 17 17 17
16 16 16 16 16 16 16 16 16 16 17 17 17 17 17 16 16 16 16 16 16 17 17 17 17 17 17 17 17 17 17 17 17 17 17 17 17 17 17 17 17 17
16 16 16 15 15 15 16 16 16 16 17 17 17 17 17 16 17 17 17 17 17 17 17 17 17 17 17 17 17 17 17 17 17 17 17 17 17 17 17 17 17 17
15 15 15 15 15 15 15 16 16 16 16 17 17 17 17 16 16 17 17 17 17 17 17 17 17 17 17 17 17 17 17 17 17 17 17 17 17 17 17 17 17 17
14 14 14 14 15 15 15 15 15 15 16 17 17 17 17 16 16 17 17 17 17 17 17 17 17 17 17 17 17 17 17 17 17 17 17 17 17 17 17 17 17 16
12 13 13 13 14 14 14 14 15 15 16 16 16 16 16 16 16 16 16 17 17 17 17 17 17 17 17 17 17 17 17 17 17 17 17 17 17 17 17 17 17 16
12 12 12 12 13 13 14 14 14 15 15 16 16 16 16 16 16 16 17 17 17 17 17 17 17 17 17 17 17 17 17 17 17 16 16 16 16 16 16 16 16 16
12 12 12 12 12 13 13 14 14 14 15 15 15 15 16 16 16 16 17 17 17 17 17 17 17 17 17 16 16 16 16 16 16 16 16 15 16 16 16 16 16 16
12 12 12 12 12 13 13 13 13 14 14 14 14 15 15 15 15 16 16 16 16 16 16 16 16 16 16 16 16 16 16 16 15 15 15 15 15 16 16 16 16 15
11 11 11 12 12 12 12 13 13 13 13 14 14 14 14 14 15 15 15 15 15 15 16 15 15 15 16 16 16 16 16 16 15 15 15 15 15 15 15 15 15 15
12 12 11 11 12 12 12 12 13 13 13 13 13 13 13 14 14 14 14 14 15 15 15 15 15 15 15 15 15 15 15 15 15 15 15 15 15 15 15 15 15 15
12 12 12 12 12 12 12 12 12 12 13 13 13 13 13 13 13 13 13 13 14 14 14 13 13 14 15 14 14 14 14 14 14 14 14 14 14 15 15 15 15 14
11 11 12 12 12 12 12 12 12 12 12 12 13 13 13 13 13 12 13 13 13 13 13 12 13 13 14 14 14 14 14 14 14 14 14 14 14 14 14 14 14 14
10 11 11 11 11 11 11 12 12 12 12 13 13 13 13 13 13 13 13 13 13 12 12 12 12 13 13 13 13 13 13 13 13 13 13 14 14 14 14 14 14 14
10 10 10 10 10 10 11 11 11 12 12 12 12 13 13 13 13 13 13 13 13 13 13 13 13 13 13 13 13 13 13 13 13 13 13 13 13 14 14 14 14 13

ECMWFNIL_925_temp_060.txt.gz
Temp
18 18 18 17 17 17 17 17 17 17 17 17 17 17 17 17 17 17 17 17 17 17 17 17 16 16 16 16 16 16 16 16 16 16 16 16 16 16 15 15 15 15
18 18 18 17 17 17 17 17 17 17 17 17 17 17 17 17 17 17 17 16 16 16 17 17 16 16 16 16 16 16 16 16 16 16 16 16 16 16 16 15 15 15
18 18 18 18 18 17 17 17 17 17 17 17 17 16 17 17 16 17 17 16 16 16 16 16 16 16 16 16 16 17 16 16 16 17 16 16 16 16 16 16 15 15
18 18 18 18 18 17 17 17 17 17 17 17 16 16 16 16 16 16 16 16 16 16 16 16 16 16 16 16 16 17 17 17 17 17 17 17 16 16 16 16 15 16
18 18 18 18 18 17 17 17 17 17 17 17 16 16 16 16 16 16 16 16 16 16 16 16 16 16 16 16 16 17 17 17 17 17 17 17 17 16 16 16 16 16
18 18 19 18 18 17 17 17 17 17 17 17 16 16 16 16 16 16 16 16 16 16 16 16 16 16 15 16 16 17 17 17 17 17 17 17 17 17 16 16 16 16
19 18 18 18 18 17 17 17 17 17 17 17 16 16 16 16 16 16 16 16 16 16 16 16 16 16 15 16 16 17 17 17 17 17 17 17 17 17 17 16 16 16
19 18 18 18 18 17 17 17 17 17 17 17 16 16 16 16 16 16 16 16 16 16 16 16 16 16 16 16 16 16 17 17 17 17 17 17 17 17 17 17 17 17
18 18 18 18 18 17 17 17 17 17 17 17 17 16 16 16 16 16 16 16 16 16 16 16 16 16 16 16 16 16 16 17 17 17 17 17 17 17 17 17 17 17
18 18 18 18 17 18 18 17 17 17 17 17 17 16 16 16 16 16 16 16 16 16 16 16 16 16 16 16 16 16 16 16 16 16 17 17 17 17 17 17 17 17
17 17 17 18 18 18 18 17 17 17 17 17 17 16 16 16 16 16 16 16 16 16 16 16 16 16 16 16 16 16 16 16 16 16 16 17 17 17 17 17 17 17
17 17 17 17 18 18 17 17 17 17 17 17 17 16 16 16 16 16 16 16 16 16 16 16 16 16 16 16 16 16 16 16 16 16 16 16 17 17 17 17 17 17
17 17 17 17 17 17 16 16 16 16 16 16 16 16 16 16 16 16 16 16 16 16 16 16 16 16 16 16 16 16 16 16 16 16 16 16 16 17 17 17 17 17
16 17 16 16 15 15 15 15 16 16 15 16 16 16 16 16 16 16 16 16 16 16 16 16 16 16 16 16 16 16 16 17 17 17 17 17 17 17 17 17 17 17
15 15 15 15 15 15 15 15 15 15 15 15 15 16 16 16 16 16 16 16 16 16 16 16 16 16 16 16 17 17 17 17 17 17 17 17 17 17 17 17 17 17
13 14 14 15 15 15 15 15 15 15 15 15 15 16 16 16 16 16 16 16 16 16 16 16 16 16 16 16 16 16 16 17 17 17 17 17 17 17 17 17 17 17
12 13 13 14 14 14 15 15 15 15 15 16 16 16 15 16 16 16 16 16 16 16 16 16 16 16 16 16 16 16 16 17 17 17 17 17 17 17 17 17 17 17
12 13 13 13 13 13 14 14 14 14 15 15 15 15 15 16 16 16 16 16 16 16 16 16 16 16 16 17 16 16 16 16 16 17 17 17 17 17 17 16 16 16
12 12 13 13 13 13 13 13 13 14 14 14 15 15 15 16 16 16 16 16 16 16 16 16 16 17 17 17 17 16 16 16 16 16 16 16 16 16 16 16 16 16
12 12 12 12 12 12 13 13 14 14 14 14 15 15 15 15 15 15 16 16 16 16 16 16 16 16 16 16 16 16 16 16 16 16 16 16 16 16 16 16 16 16
11 11 11 11 12 12 13 13 13 13 14 14 14 14 14 15 15 15 15 15 15 15 15 15 15 15 15 15 15 15 15 15 15 15 15 15 16 16 16 16 15 15
10 11 11 11 11 12 12 12 13 13 13 14 14 14 13 13 14 14 14 14 14 14 14 14 14 15 14 15 15 15 15 15 15 14 15 15 15 15 15 15 15 15
10 11 11 11 11 11 11 12 12 12 12 13 13 13 13 13 13 13 13 13 13 13 13 13 14 14 15 15 14 14 14 14 14 14 14 14 14 14 14 14 14 14
10 10 10 11 11 11 11 11 12 12 12 12 12 12 12 12 12 13 13 13 13 13 13 13 14 14 14 14 13 13 13 13 13 13 13 13 13 13 13 13 14 14
10 10 10 11 11 11 11 11 11 12 12 12 12 12 12 12 12 13 13 13 13 13 13 13 14 14 13 13 13 13 12 12 12 12 13 13 13 13 13 13 13 13
9 10 10 10 10 10 10 11 11 11 11 11 11 12 12 12 12 12 12 12 12 13 13 13 13 13 13 13 13 13 13 13 13 12 12 12 12 12 13 13 13 13

ECMWFNIL_925_temp_063.txt.gz
Temp
18 18 18 18 18 17 17 17 17 17 17 17 16 16 17 17 17 17 17 17 17 17 17 16 16 16 16 16 16 16 16 16 16 16 15 15 15 15 15 15 15 15
18 18 18 18 18 17 17 17 17 17 17 17 16 16 17 17 17 17 17 17 17 17 16 16 16 16 16 16 16 16 16 16 16 16 16 16 16 15 15 15 15 15
18 18 18 18 18 17 17 17 17 17 17 17 17 16 16 17 17 17 16 17 17 17 16 16 15 16 16 16 16 16 16 16 16 16 16 16 16 15 15 15 15 15
18 18 18 18 18 17 17 17 17 17 17 17 17 16 16 16 17 16 16 16 16 16 16 16 15 16 16 16 17 16 16 16 16 16 16 16 16 15 15 15 15 15
18 18 18 18 18 17 17 17 17 17 17 17 17 16 16 16 16 16 16 16 16 16 16 16 15 15 16 16 17 17 17 17 17 17 17 16 16 16 15 15 15 15
18 18 18 18 18 17 17 17 17 17 17 16 16 16 16 16 16 16 16 16 16 16 16 16 16 15 16 16 17 17 17 17 17 17 17 17 16 16 15 15 15 16
18 18 18 18 17 17 17 17 17 17 17 16 16 16 16 16 16 16 16 16 16 16 16 16 16 16 16 16 17 17 17 17 17 17 17 17 17 16 16 15 16 16
18 18 18 18 17 17 17 17 17 17 17 16 16 16 16 16 16 16 16 16 16 16 16 16 16 16 16 16 16 17 17 17 17 17 17 17 17 17 16 16 16 16
17 17 17 17 17 17 17 17 17 17 16 16 16 16 16 15 16 16 16 16 16 16 16 16 16 15 15 16 16 17 17 17 17 17 17 17 17 17 17 17 16 16
17 17 17 17 17 17 17 17 17 17 16 16 16 16 15 15 15 16 16 16 16 16 16 16 16 15 16 16 16 16 16 17 17 17 17 17 17 17 17 17 17 17
17 17 17 17 17 17 17 17 17 17 16 16 16 16 15 15 15 16 16 16 16 16 16 16 16 16 16 16 16 16 16 16 16 16 16 17 17 17 17 17 17 17
17 17 17 17 17 17 17 17 17 16 16 16 16 16 16 15 15 16 16 16 16 16 16 16 16 16 16 16 16 16 16 16 16 16 16 16 17 17 17 17 17 17
16 16 17 17 17 17 16 16 16 16 16 16 16 16 16 16 16 16 16 16 16 16 16 16 16 16 16 16 16 16 16 16 16 16 16 16 17 17 17 17 17 17
15 16 16 16 16 16 15 15 16 16 16 16 15 16 16 16 16 16 16 16 16 16 16 16 16 16 16 16 16 16 16 16 16 16 16 17 17 17 17 17 17 17
14 15 15 15 15 15 15 15 15 15 15 15 15 15 16 15 15 16 16 16 16 16 16 16 16 16 16 16 16 16 16 16 17 17 17 17 17 17 17 17 17 17
14 14 14 15 15 15 15 15 15 15 15 15 15 16 15 15 15 16 16 16 16 16 16 16 16 16 16 16 16 16 16 16 16 17 17 17 17 17 17 17 17 17
13 13 14 14 14 14 15 15 15 15 15 15 15 15 15 14 15 16 16 16 16 16 16 16 16 16 16 16 16 16 16 16 16 16 16 17 16 16 16 16 17 17
13 13 13 13 13 14 14 15 15 15 15 15 14 15 15 14 15 17 16 16 16 16 16 16 16 16 16 16 16 16 16 16 16 16 16 16 16 16 16 16 16 16
12 12 12 13 13 13 13 14 14 14 14 14 14 15 15 15 16 16 16 16 16 16 16 16 16 16 16 16 16 16 16 16 16 16 16 16 16 16 16 16 16 16
11 12 12 12 12 12 12 13 13 13 13 14 14 14 15 15 15 15 15 15 15 15 16 16 16 16 16 16 16 16 16 16 16 16 16 16 16 16 16 16 16 16
11 11 11 12 12 12 12 12 12 13 13 13 13 14 14 14 14 14 14 14 14 14 15 15 15 15 15 15 15 15 15 16 15 15 15 16 16 15 15 15 15 15
11 11 11 11 11 12 12 12 12 12 12 12 12 13 13 13 13 13 13 13 13 13 14 14 14 14 14 14 15 15 15 14 14 15 15 15 15 15 15 15 15 15
11 11 11 11 11 11 11 11 11 11 11 12 12 12 12 12 12 12 12 12 13 13 13 13 13 13 14 14 14 14 14 14 14 14 14 14 14 14 14 14 15 15
11 11 11 11 11 11 11 11 11 11 11 12 12 12 12 12 11 11 12 12 12 13 13 12 12 13 13 13 13 14 13 13 14 13 14 14 14 14 14 14 14 14
11 11 11 11 11 11 11 11 11 11 11 12 12 12 11 11 11 11 12 12 12 12 12 12 12 12 13 13 13 13 13 13 13 13 13 13 13 14 14 14 14 14
10 10 10 10 10 10 11 11 11 11 11 11 12 12 11 11 11 11 11 11 11 11 12 12 12 12 12 13 13 13 13 13 13 13 13 12 13 13 13 13 13 13

ECMWFNIL_925_temp_069.txt.gz
Temp
17 17 18 18 17 17 18 20 20 20 20 20 20 19 19 19 19 19 19 19 19 19 19 19 19 18 18 18 18 18 18 18 18 18 18 18 17 17 17 17 17 17
17 18 18 18 18 18 19 20 20 20 20 20 20 19 19 19 19 19 19 19 19 18 18 18 18 18 18 18 18 18 18 18 18 18 18 18 17 17 17 17 17 17
18 18 18 18 18 19 20 20 20 20 20 20 20 19 19 19 19 19 19 19 19 18 18 18 18 18 19 18 18 18 18 18 18 18 18 18 18 18 18 17 17 17
18 18 18 18 19 19 19 19 20 20 19 19 19 19 19 19 19 19 18 19 19 18 18 18 18 18 18 18 18 18 18 18 18 18 18 18 18 18 18 18 17 17
18 18 18 19 19 19 19 19 20 19 19 19 19 19 19 19 19 19 18 19 18 18 18 18 18 18 19 18 18 18 18 18 18 18 18 18 18 18 18 18 18 17
18 18 19 19 19 19 19 19 20 19 19 19 19 19 18 18 19 19 19 19 18 18 18 18 18 18 19 19 18 19 19 19 18 18 19 18 18 18 18 18 18 17
18 19 19 19 19 19 19 19 19 19 19 18 18 18 18 19 19 19 19 19 19 18 18 18 18 19 19 19 19 19 19 19 19 19 19 19 18 18 18 18 18 18
18 19 18 18 19 19 19 19 19 19 18 18 18 18 18 19 19 19 19 19 19 19 19 19 18 19 19 19 19 19 19 19 19 19 19 18 18 19 19 19 18 18
18 18 18 18 19 19 19 19 19 19 19 18 18 18 18 19 19 19 19 19 19 19 19 19 19 19 19 19 19 19 19 19 19 19 19 18 18 19 19 19 19 18
18 18 18 18 18 18 18 19 18 18 18 18 18 18 18 19 19 19 19 19 19 19 19 19 19 19 19 19 19 19 19 19 19 19 19 19 19 19 19 19 18 18
18 18 18 18 18 18 18 18 18 18 18 18 18 18 19 19 19 19 19 19 19 19 19 19 19 19 19 19 19 19 19 19 19 19 19 19 19 19 19 19 18 19
18 18 19 18 18 18 18 18 18 18 18 18 18 19 18 18 19 19 19 19 19 19 19 19 19 19 19 19 19 19 19 19 19 19 19 19 19 19 19 19 19 19
16 18 19 19 18 18 18 18 18 18 18 18 18 18 18 18 19 19 19 19 19 20 20 19 19 19 19 19 19 19 19 19 19 19 19 19 19 20 19 19 19 19
15 16 18 18 18 18 18 18 18 18 18 19 18 18 18 19 19 19 19 19 19 19 19 19 19 19 19 19 19 19 19 19 19 19 19 19 19 19 19 19 19 19
15 16 17 17 18 18 18 18 18 18 18 18 18 18 18 19 19 19 19 19 19 19 19 19 19 19 19 19 19 19 19 19 19 19 19 19 19 19 19 19 19 19
15 15 16 17 17 18 18 18 18 18 18 18 18 18 18 18 18 18 19 19 19 19 19 19 18 18 18 18 18 18 19 19 19 19 19 19 19 19 19 19 19 19
14 15 15 16 17 17 17 17 17 18 18 18 18 17 17 18 18 18 18 19 19 18 18 17 17 17 17 18 18 18 18 18 19 19 19 19 19 19 19 19 19 19
14 15 15 15 16 16 16 16 16 17 17 17 17 17 17 17 17 17 17 18 18 18 17 16 16 17 17 17 17 18 18 18 18 19 19 19 19 19 19 19 19 19
14 14 14 14 15 15 15 15 15 15 16 16 16 16 16 16 16 16 16 16 16 16 16 16 16 16 17 17 17 17 17 17 18 18 19 19 19 19 19 19 19 19
13 13 13 13 14 14 14 14 14 14 14 15 15 15 16 16 16 16 16 15 15 15 16 16 16 16 16 16 17 17 17 17 17 17 18 19 19 19 19 19 19 18
13 13 13 13 13 13 13 13 13 13 13 14 14 15 15 15 15 16 15 15 14 15 15 15 15 16 16 16 17 17 17 17 17 17 17 18 18 18 18 18 18 18
13 13 13 13 13 12 12 13 13 13 13 13 14 14 14 14 14 14 14 14 13 14 14 14 15 15 16 16 16 16 17 17 16 16 17 17 17 17 17 17 16 16
12 12 12 12 12 12 12 12 12 13 13 13 13 13 13 13 12 13 13 13 12 13 13 13 14 14 15 15 15 16 16 16 16 16 17 17 17 17 17 16 14 14
11 11 11 11 11 11 11 11 12 12 12 13 13 13 12 12 12 11 12 12 12 12 12 13 13 13 14 14 14 15 15 15 15 16 16 16 16 16 16 15 14 14
11 11 11 11 11 11 11 11 11 11 12 12 12 12 12 12 11 11 11 11 11 11 11 12 12 13 13 13 14 14 14 14 15 15 16 15 15 15 15 14 14 14
12 12 12 12 11 11 11 11 11 11 11 11 11 11 11 11 11 10 10 10 10 10 10 11 11 12 12 13 13 13 13 13 13 14 15 15 14 15 15 15 14 13

ECMWFNIL_925_temp_072.txt.gz
Temp
17 17 18 19 19 19 19 19 19 19 20 20 20 19 19 19 19 19 19 19 19 19 19 19 19 19 18 18 18 18 18 18 18 18 17 17 17 17 17 17 17 17
17 17 18 19 19 19 19 19 19 20 20 20 20 19 19 19 19 19 19 19 19 19 19 19 19 18 18 18 18 18 18 18 18 18 18 17 17 17 17 17 17 17
17 18 18 19 19 19 19 19 19 20 20 20 20 19 19 19 19 19 19 19 19 18 18 19 18 18 19 18 18 19 19 18 18 18 18 18 18 17 17 17 17 17
17 18 18 19 19 19 19 19 20 20 20 20 20 19 19 19 19 19 19 19 19 18 18 18 18 19 19 18 18 19 18 18 18 18 18 18 18 17 17 17 17 17
17 18 18 19 19 19 19 19 20 20 20 20 19 19 19 19 19 19 19 19 18 18 18 18 18 19 19 18 18 18 18 18 18 18 18 18 18 17 18 17 17 17
17 18 18 19 19 19 19 20 20 20 20 19 19 19 19 19 19 19 19 19 18 18 18 18 18 19 19 19 19 18 18 18 18 18 18 18 18 18 18 18 17 17
17 18 18 19 19 19 19 19 19 19 19 19 19 19 19 19 19 19 19 19 18 18 18 18 18 19 19 19 19 19 19 19 19 19 19 18 18 18 18 18 17 18
18 18 19 19 19 19 19 19 19 19 19 19 19 18 19 19 19 19 19 19 19 19 19 18 19 19 19 19 19 19 19 19 19 19 19 18 18 18 18 18 18 18
18 19 19 19 19 19 19 19 19 19 18 18 18 18 19 19 19 19 19 19 19 19 19 19 19 19 19 19 19 19 19 19 19 19 19 18 18 18 18 18 18 18
18 19 19 19 19 19 19 19 19 18 18 18 18 19 19 19 19 19 19 19 19 19 19 19 19 19 19 19 19 19 20 19 19 19 18 18 18 18 18 18 18 18
17 18 19 19 19 19 19 19 19 19 18 18 18 19 19 19 19 19 19 19 19 19 19 19 19 19 19 19 19 19 19 19 19 19 19 18 18 18 18 18 18 18
16 18 19 19 19 19 19 19 19 18 18 18 19 19 19 19 19 19 19 19 19 19 19 19 19 19 19 19 19 19 19 19 20 19 19 19 18 18 18 18 18 18
16 17 18 18 18 18 18 18 18 18 18 18 18 19 19 19 19 19 19 19 20 20 19 19 19 19 19 19 19 19 19 19 19 19 19 19 19 19 19 19 19 18
16 17 17 18 18 18 18 18 18 18 18 18 18 19 19 19 19 19 19 20 20 20 20 19 19 19 19 19 19 19 19 19 19 19 19 19 19 19 19 19 19 19
16 17 17 17 18 18 18 18 18 18 18 18 18 18 19 19 19 19 19 20 20 20 19 19 18 18 19 19 19 19 19 19 19 19 19 19 19 19 19 19 19 18
16 17 17 17 18 18 18 18 19 19 18 18 18 18 19 19 19 19 19 19 19 19 18 18 18 18 18 18 18 19 19 19 19 19 19 19 19 19 19 19 19 18
16 16 16 17 17 17 18 18 18 18 18 18 18 18 19 19 19 19 19 19 19 18 17 17 17 17 18 18 18 18 18 18 19 19 19 19 19 19 19 19 19 18
15 16 16 16 16 17 17 17 18 18 18 18 18 18 18 18 18 17 17 18 17 17 17 17 17 17 17 18 18 18 18 18 18 18 19 19 19 19 19 19 19 19
14 15 15 15 16 16 16 17 17 17 17 17 17 17 17 17 16 16 16 16 17 17 17 17 17 17 17 17 18 18 18 18 18 18 18 18 19 19 19 19 18 18
14 14 14 14 15 15 15 15 15 16 16 16 16 16 16 16 16 16 16 16 16 16 16 17 17 17 17 17 18 18 18 18 18 18 18 18 18 18 18 17 16 16
13 13 13 13 14 15 14 14 14 15 15 15 16 16 16 16 16 16 16 16 16 16 16 16 16 16 16 17 17 17 17 17 18 18 18 17 17 17 17 17 16 15
13 13 13 13 13 13 13 13 13 14 14 14 15 15 15 15 15 15 15 15 15 15 15 15 15 15 16 16 16 16 16 17 17 17 17 17 17 16 16 16 15 15
12 12 12 12 12 12 12 12 13 13 13 13 13 14 14 14 14 14 14 14 14 14 14 14 14 14 14 15 16 16 16 17 16 16 16 16 16 15 15 15 14 14
12 12 12 12 12 12 12 12 12 12 13 13 13 13 13 12 13 13 12 13 13 12 12 13 12 13 14 15 15 15 15 15 15 16 16 15 15 15 15 14 14 14
11 11 11 11 11 11 12 12 12 12 12 12 12 12 12 12 12 12 11 11 11 11 11 12 12 12 13 14 14 14 14 14 15 15 15 15 15 15 14 14 14 13
11 11 11 11 11 11 12 12 12 12 12 12 12 11 11 11 11 11 11 11 11 11 11 11 11 12 12 13 13 13 13 14 14 14 14 14 14 14 13 13 13 13

ECMWFNIL_925_temp_075.txt.gz
Temp
17 18 17 17 17 17 18 18 19 19 19 19 19 19 19 19 19 19 19 19 19 19 18 18 18 18 18 18 18 17 17 17 17 17 17 17 17 17 17 17 17 17
16 17 17 17 17 17 18 19 19 19 19 19 19 19 19 19 19 19 19 19 19 18 18 18 18 18 18 18 18 18 17 17 17 17 17 17 17 17 17 17 17 17
16 16 17 17 17 18 18 19 19 19 19 19 19 19 19 19 19 19 19 19 19 18 18 18 18 18 18 18 18 18 18 18 18 17 17 17 17 17 17 17 17 17
16 16 17 17 18 18 19 19 19 19 19 19 19 19 19 19 19 19 19 18 18 18 18 18 18 18 18 18 18 18 18 18 18 17 17 17 17 17 17 17 17 17
16 16 16 17 18 18 19 19 19 19 20 19 19 19 19 19 19 19 18 18 18 18 18 18 18 18 18 18 18 18 18 18 18 18 17 17 17 17 17 17 17 17
16 16 15 16 18 18 18 19 19 19 19 19 19 19 19 19 19 18 18 18 18 18 18 18 18 18 18 18 18 18 18 18 18 18 18 17 17 17 17 17 17 17
15 15 16 17 18 18 18 19 19 19 19 19 19 19 18 19 18 18 18 18 18 18 18 18 18 18 18 18 18 18 18 18 18 18 18 18 17 17 17 17 17 17
16 16 16 17 18 18 18 19 19 19 19 19 19 19 18 19 18 18 18 18 18 18 18 18 18 18 18 18 18 18 18 18 18 18 18 18 17 17 17 17 17 17
16 17 17 18 18 18 19 19 19 19 19 19 19 19 18 19 19 18 18 18 18 18 18 18 18 18 18 18 19 19 19 19 18 18 18 18 18 18 17 17 17 17
16 17 17 18 18 18 19 19 18 18 19 19 19 19 19 19 19 19 18 19 18 18 18 18 19 19 19 19 19 19 19 19 19 18 18 18 18 18 18 17 17 18
16 17 17 16 17 18 19 18 18 18 18 18 19 19 19 19 19 19 19 19 19 18 18 19 19 19 19 19 19 19 19 19 18 18 18 18 18 18 18 18 18 18
16 17 17 16 17 18 18 18 18 18 18 18 18 19 19 19 19 19 19 19 19 19 19 19 19 19 19 19 19 19 19 19 18 18 18 18 18 18 18 18 18 18
16 16 17 16 17 18 18 18 18 18 18 18 18 19 19 19 19 19 19 19 19 19 19 19 19 19 19 19 19 19 19 19 19 19 18 18 18 18 18 18 18 18
15 16 16 16 17 18 18 18 18 18 18 18 18 19 19 19 19 19 19 19 19 19 19 19 19 19 19 19 19 19 19 19 19 19 19 18 18 18 18 18 18 18
15 16 16 16 17 18 18 18 18 18 18 18 18 19 19 19 19 19 19 19 18 18 18 18 19 19 19 19 19 19 19 19 19 19 19 19 18 18 18 18 18 18
15 15 16 16 17 18 18 18 18 18 18 18 18 18 19 19 19 19 18 18 18 18 18 18 18 18 18 18 18 19 19 19 19 19 19 19 19 18 18 18 18 18
15 15 16 16 16 17 18 18 18 18 18 18 18 18 18 19 18 18 18 18 18 18 18 17 17 17 17 18 18 18 18 18 19 19 19 19 19 18 18 18 18 18
15 15 15 16 16 17 18 18 18 18 18 17 17 18 18 18 17 17 17 17 17 17 17 17 17 17 17 17 18 18 18 18 18 18 18 18 18 18 18 17 17 17
14 14 14 15 15 16 17 18 17 17 17 17 17 17 17 17 17 17 17 17 17 17 17 17 17 17 17 17 17 18 18 18 18 18 17 18 18 17 17 17 17 17
14 14 14 14 15 15 16 17 16 16 16 16 16 16 16 16 16 16 16 17 17 17 17 17 16 17 17 17 17 17 18 18 17 17 17 17 17 17 17 17 17 17
14 14 14 14 14 14 15 15 15 15 15 16 16 16 16 16 16 16 16 16 16 16 16 16 16 16 17 17 17 18 18 18 17 16 16 16 16 16 16 16 16 16
13 13 13 14 13 13 13 14 14 15 15 15 15 15 15 15 15 16 16 16 16 16 16 16 16 16 16 16 17 17 18 17 17 16 16 16 16 16 16 16 16 16
12 12 13 13 13 13 13 13 14 14 14 15 15 15 15 15 15 15 15 15 15 15 15 15 15 15 15 16 16 16 16 16 16 16 16 16 15 15 15 15 15 15
11 11 12 12 13 13 12 13 13 13 14 14 14 14 14 14 14 14 13 14 14 14 14 14 14 14 14 14 15 15 15 15 16 15 15 15 14 14 14 15 14 13
11 12 12 12 12 12 12 12 13 13 13 13 13 13 13 12 13 13 12 12 12 12 12 12 12 12 13 13 14 14 15 15 15 14 14 14 13 13 13 13 12 12
11 11 12 12 12 12 12 12 12 12 12 13 13 12 12 12 12 12 11 11 11 11 11 11 12 11 12 12 13 13 14 14 14 13 12 12 12 12 12 11 11 11